TimeCST,TemperatureF,Dew PointF,Humidity,Sea Level PressureIn,VisibilityMPH,Wind Direction,Wind SpeedMPH,Gust SpeedMPH,PrecipitationIn,Events,Conditions,WindDirDegrees,DateUTC
12:53 AM,30.0,23.0,75,29.73,10.0,West,8.1,-,N/A,,Overcast,270,2014-01-20 06:53:00
1:38 AM,30.2,24.8,80,29.72,10.0,West,6.9,-,N/A,,Overcast,270,2014-01-20 07:38:00
1:53 AM,30.0,24.1,79,29.75,10.0,West,6.9,-,N/A,,Overcast,270,2014-01-20 07:53:00
2:53 AM,30.9,24.1,76,29.76,10.0,West,10.4,18.4,N/A,,Overcast,280,2014-01-20 08:53:00
3:53 AM,30.9,24.1,76,29.77,10.0,WNW,13.8,-,N/A,,Overcast,290,2014-01-20 09:53:00
4:53 AM,30.0,23.0,75,29.80,10.0,NW,15.0,-,N/A,,Overcast,320,2014-01-20 10:53:00
5:53 AM,28.0,21.9,78,29.81,10.0,North,12.7,-,N/A,,Overcast,350,2014-01-20 11:53:00
6:53 AM,25.0,18.0,75,29.87,10.0,North,9.2,-,N/A,,Overcast,360,2014-01-20 12:53:00
7:53 AM,21.0,15.1,78,29.91,10.0,NNE,13.8,-,N/A,,Overcast,30,2014-01-20 13:53:00
8:53 AM,19.0,10.0,68,29.97,10.0,NNE,11.5,-,N/A,,Overcast,30,2014-01-20 14:53:00
9:21 AM,19.4,10.4,68,29.96,7.0,NNE,12.7,-,0.00,Snow,Light Snow,20,2014-01-20 15:21:00
9:30 AM,17.6,10.4,73,29.97,2.0,NNE,15.0,-,0.00,Snow,Light Snow,20,2014-01-20 15:30:00
9:35 AM,17.6,8.6,68,29.97,1.2,NNE,12.7,-,0.00,Snow,Light Snow,20,2014-01-20 15:35:00
9:42 AM,17.6,10.4,73,29.98,1.8,NNE,10.4,-,0.00,Snow,Light Snow,20,2014-01-20 15:42:00
9:47 AM,17.6,8.6,68,29.98,3.0,North,15.0,21.9,0.00,Snow,Light Snow,10,2014-01-20 15:47:00
9:53 AM,17.1,7.0,65,30.01,5.0,NNE,15.0,-,0.00,Snow,Light Snow,20,2014-01-20 15:53:00
10:53 AM,15.1,9.0,77,30.06,5.0,North,10.4,-,0.00,Snow,Light Snow,360,2014-01-20 16:53:00
11:08 AM,15.8,8.6,73,30.04,4.0,North,11.5,18.4,0.00,Snow,Light Snow,360,2014-01-20 17:08:00
11:24 AM,15.8,6.8,68,30.03,4.0,North,11.5,-,0.00,Snow,Light Snow,10,2014-01-20 17:24:00
11:53 AM,15.1,6.1,68,30.07,10.0,North,10.4,-,0.00,,Overcast,10,2014-01-20 17:53:00
12:53 PM,12.9,3.9,67,30.09,7.0,NNE,18.4,21.9,0.00,,Overcast,20,2014-01-20 18:53:00
1:53 PM,12.0,1.9,64,30.12,10.0,North,13.8,-,N/A,,Overcast,360,2014-01-20 19:53:00
2:53 PM,10.9,-0.0,61,30.17,10.0,North,15.0,24.2,N/A,,Mostly Cloudy,350,2014-01-20 20:53:00
3:53 PM,9.0,-2.0,61,30.22,10.0,North,16.1,24.2,N/A,,Overcast,360,2014-01-20 21:53:00
4:53 PM,8.1,-4.0,58,30.27,10.0,North,15.0,23.0,N/A,,Overcast,360,2014-01-20 22:53:00
5:53 PM,7.0,-7.1,53,30.32,10.0,North,13.8,24.2,N/A,,Overcast,350,2014-01-20 23:53:00
6:53 PM,5.0,-11.0,48,30.37,10.0,North,19.6,26.5,N/A,,Mostly Cloudy,360,2014-01-21 00:53:00
7:53 PM,3.0,-13.0,47,30.41,10.0,North,12.7,-,N/A,,Clear,350,2014-01-21 01:53:00
8:53 PM,1.9,-13.0,50,30.45,10.0,NNW,15.0,-,N/A,,Clear,340,2014-01-21 02:53:00
9:53 PM,-0.0,-16.1,47,30.47,10.0,NNW,13.8,-,N/A,,Clear,340,2014-01-21 03:53:00
10:53 PM,-0.9,-17.0,47,30.49,10.0,North,13.8,-,N/A,,Clear,350,2014-01-21 04:53:00
11:53 PM,-2.9,-17.0,51,30.51,10.0,NNW,11.5,-,N/A,,Clear,330,2014-01-21 05:53:00